Time,TemperatureF,DewpointF,PressureIn,WindDirection,WindDirectionDegrees,WindSpeedMPH,WindSpeedGustMPH,Humidity,HourlyPrecipIn,Conditions,Clouds,dailyrainin,SoftwareType,DateUTC
2013-09-09 00:06:00,81.5,75.8,29.93,East,90,0.0,-999.0,83,-99.99,,,0.00,Acu-Link.com,2013-09-09 04:06:00,
2013-09-09 00:21:00,81.3,75.6,29.93,SSW,202,1.6,-999.0,83,-99.99,,,0.00,Acu-Link.com,2013-09-09 04:21:00,
2013-09-09 00:36:00,81.1,75.8,29.92,SSW,202,0.0,-999.0,84,-99.99,,,0.00,Acu-Link.com,2013-09-09 04:36:00,
2013-09-09 00:51:00,80.8,75.5,29.92,SE,135,2.2,-999.0,84,-99.99,,,0.00,Acu-Link.com,2013-09-09 04:51:00,
2013-09-09 01:07:00,80.4,75.5,29.91,SW,225,0.0,-999.0,85,-99.99,,,0.00,Acu-Link.com,2013-09-09 05:07:00,
2013-09-09 01:22:00,80.6,75.7,29.92,South,180,1.1,-999.0,85,-99.99,,,0.00,Acu-Link.com,2013-09-09 05:22:00,
2013-09-09 01:37:00,80.2,75.7,29.91,ESE,112,2.2,-999.0,86,-99.99,,,0.00,Acu-Link.com,2013-09-09 05:37:00,
2013-09-09 01:52:00,80.1,75.8,29.90,SSW,202,2.2,-999.0,87,-99.99,,,0.00,Acu-Link.com,2013-09-09 05:52:00,
2013-09-09 02:07:00,79.9,76.0,29.89,SE,135,1.6,-999.0,88,-99.99,,,0.00,Acu-Link.com,2013-09-09 06:07:00,
2013-09-09 02:23:00,80.1,76.2,29.89,South,180,2.7,-999.0,88,-99.99,,,0.00,Acu-Link.com,2013-09-09 06:23:00,
2013-09-09 02:38:00,80.1,76.2,29.88,South,180,3.8,-999.0,88,-99.99,,,0.00,Acu-Link.com,2013-09-09 06:38:00,
2013-09-09 02:53:00,79.7,75.8,29.87,West,270,1.1,-999.0,88,-99.99,,,0.00,Acu-Link.com,2013-09-09 06:53:00,
2013-09-09 03:08:00,79.5,75.6,29.87,ENE,67,2.2,-999.0,88,-99.99,,,0.00,Acu-Link.com,2013-09-09 07:08:00,
2013-09-09 03:23:00,79.3,75.5,29.87,SSW,202,2.2,-999.0,88,-99.99,,,0.00,Acu-Link.com,2013-09-09 07:23:00,
2013-09-09 03:39:00,79.0,75.1,29.86,SSW,202,1.6,-999.0,88,-99.99,,,0.00,Acu-Link.com,2013-09-09 07:39:00,
2013-09-09 03:54:00,79.0,75.5,29.86,SSW,202,2.7,-999.0,89,-99.99,,,0.00,Acu-Link.com,2013-09-09 07:54:00,
2013-09-09 04:09:00,79.2,75.6,29.86,South,180,3.8,-999.0,89,-99.99,,,0.00,Acu-Link.com,2013-09-09 08:09:00,
2013-09-09 04:25:00,79.2,75.6,29.86,SSW,202,4.3,-999.0,89,-99.99,,,0.00,Acu-Link.com,2013-09-09 08:25:00,
2013-09-09 04:40:00,79.2,75.6,29.87,South,180,2.2,-999.0,89,-99.99,,,0.00,Acu-Link.com,2013-09-09 08:40:00,
2013-09-09 04:55:00,79.2,75.6,29.87,West,270,4.3,-999.0,89,-99.99,,,0.00,Acu-Link.com,2013-09-09 08:55:00,
2013-09-09 05:10:00,79.3,75.8,29.88,SSE,157,3.1,-999.0,89,-99.99,,,0.00,Acu-Link.com,2013-09-09 09:10:00,
2013-09-09 05:25:00,79.7,76.2,29.89,South,180,4.7,-999.0,89,-99.99,,,0.00,Acu-Link.com,2013-09-09 09:25:00,
2013-09-09 05:41:00,79.7,76.2,29.89,SSW,202,2.7,-999.0,89,-99.99,,,0.00,Acu-Link.com,2013-09-09 09:41:00,
2013-09-09 05:56:00,79.7,76.2,29.90,SW,225,3.1,-999.0,89,-99.99,,,0.00,Acu-Link.com,2013-09-09 09:56:00,
2013-09-09 06:11:00,79.9,76.3,29.91,South,180,3.1,-999.0,89,-99.99,,,0.00,Acu-Link.com,2013-09-09 10:11:00,
2013-09-09 06:26:00,79.9,76.0,29.92,ESE,112,3.8,-999.0,88,-99.99,,,0.00,Acu-Link.com,2013-09-09 10:26:00,
2013-09-09 06:41:00,79.9,76.0,29.92,WSW,247,2.7,-999.0,88,-99.99,,,0.00,Acu-Link.com,2013-09-09 10:41:00,
2013-09-09 06:56:00,80.2,76.4,29.93,NW,315,0.0,-999.0,88,-99.99,,,0.00,Acu-Link.com,2013-09-09 10:56:00,
2013-09-09 07:12:00,80.8,76.5,29.93,SE,135,2.2,-999.0,87,-99.99,,,0.00,Acu-Link.com,2013-09-09 11:12:00,
2013-09-09 07:27:00,81.7,76.7,29.94,SSW,202,4.3,-999.0,85,-99.99,,,0.00,Acu-Link.com,2013-09-09 11:27:00,
2013-09-09 07:42:00,82.4,77.1,29.94,ESE,112,3.1,-999.0,84,-99.99,,,0.00,Acu-Link.com,2013-09-09 11:42:00,
2013-09-09 07:57:00,82.9,77.2,29.95,SSE,157,2.2,-999.0,83,-99.99,,,0.00,Acu-Link.com,2013-09-09 11:57:00,
2013-09-09 08:12:00,84.0,77.5,29.95,SSE,157,2.7,-999.0,81,-99.99,,,0.00,Acu-Link.com,2013-09-09 12:12:00,
2013-09-09 08:28:00,83.7,77.2,29.95,South,180,4.7,-999.0,81,-99.99,,,0.00,Acu-Link.com,2013-09-09 12:28:00,
2013-09-09 08:43:00,84.0,77.2,29.94,South,180,3.8,-999.0,80,-99.99,,,0.00,Acu-Link.com,2013-09-09 12:43:00,
2013-09-09 08:58:00,85.5,77.4,29.95,SW,225,5.1,-999.0,77,-99.99,,,0.00,Acu-Link.com,2013-09-09 12:58:00,
2013-09-09 09:13:00,86.5,77.2,29.95,ESE,112,5.1,-999.0,74,-99.99,,,0.00,Acu-Link.com,2013-09-09 13:13:00,
2013-09-09 09:29:00,87.6,77.0,29.95,ESE,112,7.8,-999.0,71,-99.99,,,0.00,Acu-Link.com,2013-09-09 13:29:00,
2013-09-09 09:44:00,87.8,76.8,29.95,ESE,112,3.1,-999.0,70,-99.99,,,0.00,Acu-Link.com,2013-09-09 13:44:00,
2013-09-09 09:59:00,88.7,77.2,29.96,ESE,112,3.1,-999.0,69,-99.99,,,0.00,Acu-Link.com,2013-09-09 13:59:00,
2013-09-09 10:14:00,89.4,76.5,29.96,South,180,5.1,-999.0,66,-99.99,,,0.00,Acu-Link.com,2013-09-09 14:14:00,
2013-09-09 10:29:00,90.1,76.3,29.95,SSW,202,4.3,-999.0,64,-99.99,,,0.00,Acu-Link.com,2013-09-09 14:29:00,
2013-09-09 10:45:00,90.3,76.0,29.95,East,90,6.3,-999.0,63,-99.99,,,0.00,Acu-Link.com,2013-09-09 14:45:00,
2013-09-09 11:00:00,91.0,76.2,29.95,WNW,292,5.1,-999.0,62,-99.99,,,0.00,Acu-Link.com,2013-09-09 15:00:00,
2013-09-09 11:15:00,91.2,75.9,29.95,ESE,112,8.9,-999.0,61,-99.99,,,0.00,Acu-Link.com,2013-09-09 15:15:00,
2013-09-09 11:30:00,91.2,75.9,29.94,NE,45,6.3,-999.0,61,-99.99,,,0.00,Acu-Link.com,2013-09-09 15:30:00,
2013-09-09 11:45:00,91.6,76.2,29.94,SSE,157,5.1,-999.0,61,-99.99,,,0.00,Acu-Link.com,2013-09-09 15:45:00,
2013-09-09 12:01:00,91.9,75.5,29.94,East,90,5.8,-999.0,59,-99.99,,,0.00,Acu-Link.com,2013-09-09 16:01:00,
2013-09-09 12:16:00,91.2,74.8,29.93,NNE,22,4.7,-999.0,59,-99.99,,,0.00,Acu-Link.com,2013-09-09 16:16:00,
2013-09-09 12:31:00,91.4,74.5,29.93,South,180,6.7,-999.0,58,-99.99,,,0.00,Acu-Link.com,2013-09-09 16:31:00,
2013-09-09 12:46:00,93.4,74.2,29.93,ESE,112,6.7,-999.0,54,-99.99,,,0.00,Acu-Link.com,2013-09-09 16:46:00,
2013-09-09 13:01:00,94.5,74.1,29.92,South,180,8.3,-999.0,52,-99.99,,,0.00,Acu-Link.com,2013-09-09 17:01:00,
2013-09-09 13:17:00,93.9,73.6,29.91,SSE,157,5.8,-999.0,52,-99.99,,,0.00,Acu-Link.com,2013-09-09 17:17:00,
2013-09-09 13:32:00,92.8,74.8,29.90,East,90,4.7,-999.0,56,-99.99,,,0.00,Acu-Link.com,2013-09-09 17:32:00,
2013-09-09 13:47:00,94.1,74.3,29.90,ESE,112,7.4,-999.0,53,-99.99,,,0.00,Acu-Link.com,2013-09-09 17:47:00,
2013-09-09 14:02:00,93.7,75.6,29.89,ESE,112,6.3,-999.0,56,-99.99,,,0.00,Acu-Link.com,2013-09-09 18:02:00,
2013-09-09 14:18:00,94.8,74.4,29.88,South,180,7.4,-999.0,52,-99.99,,,0.00,Acu-Link.com,2013-09-09 18:18:00,
2013-09-09 14:33:00,95.2,74.1,29.88,SSE,157,7.4,-999.0,51,-99.99,,,0.00,Acu-Link.com,2013-09-09 18:33:00,
2013-09-09 14:48:00,94.5,74.6,29.87,South,180,7.8,-999.0,53,-99.99,,,0.00,Acu-Link.com,2013-09-09 18:48:00,
2013-09-09 15:03:00,93.4,74.8,29.86,NNE,22,6.3,-999.0,55,-99.99,,,0.00,Acu-Link.com,2013-09-09 19:03:00,
2013-09-09 15:18:00,93.7,75.1,29.86,SSE,157,5.8,-999.0,55,-99.99,,,0.00,Acu-Link.com,2013-09-09 19:18:00,
2013-09-09 15:34:00,93.4,75.3,29.86,East,90,4.7,-999.0,56,-99.99,,,0.00,Acu-Link.com,2013-09-09 19:34:00,
2013-09-09 15:49:00,93.0,74.4,29.86,ESE,112,5.1,-999.0,55,-99.99,,,0.00,Acu-Link.com,2013-09-09 19:49:00,
2013-09-09 16:04:00,93.9,74.7,29.85,East,90,5.1,-999.0,54,-99.99,,,0.00,Acu-Link.com,2013-09-09 20:04:00,
2013-09-09 16:19:00,92.7,74.1,29.85,ESE,112,8.9,-999.0,55,-99.99,,,0.00,Acu-Link.com,2013-09-09 20:19:00,
2013-09-09 16:34:00,92.1,73.0,29.86,South,180,7.4,-999.0,54,-99.99,,,0.00,Acu-Link.com,2013-09-09 20:34:00,
2013-09-09 16:50:00,91.9,75.0,29.86,SSE,157,8.9,-999.0,58,-99.99,,,0.00,Acu-Link.com,2013-09-09 20:50:00,
2013-09-09 17:05:00,91.9,75.5,29.86,ESE,112,8.3,-999.0,59,-99.99,,,0.00,Acu-Link.com,2013-09-09 21:05:00,
2013-09-09 17:20:00,90.9,75.5,29.86,SSE,157,3.1,-999.0,61,-99.99,,,0.00,Acu-Link.com,2013-09-09 21:20:00,
2013-09-09 17:35:00,89.8,74.5,29.86,SSE,157,4.3,-999.0,61,-99.99,,,0.00,Acu-Link.com,2013-09-09 21:35:00,
2013-09-09 17:50:00,88.3,73.1,29.87,ESE,112,5.1,-999.0,61,-99.99,,,0.00,Acu-Link.com,2013-09-09 21:50:00,
2013-09-09 18:06:00,88.2,73.9,29.87,ESE,112,4.7,-999.0,63,-99.99,,,0.00,Acu-Link.com,2013-09-09 22:06:00,
2013-09-09 18:21:00,87.3,73.6,29.88,South,180,3.8,-999.0,64,-99.99,,,0.00,Acu-Link.com,2013-09-09 22:21:00,
2013-09-09 18:36:00,87.1,73.9,29.88,SE,135,6.3,-999.0,65,-99.99,,,0.00,Acu-Link.com,2013-09-09 22:36:00,
2013-09-09 18:51:00,86.9,74.1,29.89,SSE,157,3.1,-999.0,66,-99.99,,,0.00,Acu-Link.com,2013-09-09 22:51:00,
2013-09-09 19:07:00,86.4,74.1,29.89,SSE,157,4.3,-999.0,67,-99.99,,,0.00,Acu-Link.com,2013-09-09 23:07:00,
2013-09-09 19:22:00,86.4,74.5,29.89,SW,225,4.7,-999.0,68,-99.99,,,0.00,Acu-Link.com,2013-09-09 23:22:00,
2013-09-09 19:37:00,86.0,74.6,29.89,SSE,157,3.1,-999.0,69,-99.99,,,0.00,Acu-Link.com,2013-09-09 23:37:00,
2013-09-09 19:52:00,86.0,75.0,29.90,ESE,112,5.1,-999.0,70,-99.99,,,0.00,Acu-Link.com,2013-09-09 23:52:00,
2013-09-09 20:07:00,85.5,75.0,29.91,SE,135,4.3,-999.0,71,-99.99,,,0.00,Acu-Link.com,2013-09-10 00:07:00,
2013-09-09 20:23:00,85.1,75.4,29.91,South,180,2.7,-999.0,73,-99.99,,,0.00,Acu-Link.com,2013-09-10 00:23:00,
2013-09-09 20:38:00,84.6,75.7,29.91,SSE,157,5.1,-999.0,75,-99.99,,,0.00,Acu-Link.com,2013-09-10 00:38:00,
2013-09-09 20:53:00,84.2,76.2,29.92,SE,135,5.1,-999.0,77,-99.99,,,0.00,Acu-Link.com,2013-09-10 00:53:00,
2013-09-09 21:08:00,83.8,76.2,29.92,SE,135,4.7,-999.0,78,-99.99,,,0.00,Acu-Link.com,2013-09-10 01:08:00,
2013-09-09 21:23:00,83.8,77.0,29.93,East,90,3.8,-999.0,80,-99.99,,,0.00,Acu-Link.com,2013-09-10 01:23:00,
2013-09-09 21:39:00,83.8,77.0,29.93,South,180,2.2,-999.0,80,-99.99,,,0.00,Acu-Link.com,2013-09-10 01:39:00,
2013-09-09 21:54:00,83.7,76.8,29.94,ESE,112,3.1,-999.0,80,-99.99,,,0.00,Acu-Link.com,2013-09-10 01:54:00,
2013-09-09 22:09:00,83.5,77.0,29.94,ESE,112,0.0,-999.0,81,-99.99,,,0.00,Acu-Link.com,2013-09-10 02:09:00,
2013-09-09 22:24:00,83.3,76.8,29.94,SW,225,2.7,-999.0,81,-99.99,,,0.00,Acu-Link.com,2013-09-10 02:24:00,
2013-09-09 22:39:00,83.3,76.8,29.94,ENE,67,1.6,-999.0,81,-99.99,,,0.00,Acu-Link.com,2013-09-10 02:39:00,
2013-09-09 22:55:00,82.8,76.7,29.94,WSW,247,2.7,-999.0,82,-99.99,,,0.00,Acu-Link.com,2013-09-10 02:55:00,
2013-09-09 23:10:00,82.8,76.7,29.95,SE,135,2.7,-999.0,82,-99.99,,,0.00,Acu-Link.com,2013-09-10 03:10:00,
2013-09-09 23:25:00,82.4,76.3,29.94,South,180,2.2,-999.0,82,-99.99,,,0.00,Acu-Link.com,2013-09-10 03:25:00,
2013-09-09 23:40:00,82.2,76.5,29.95,SSE,157,2.2,-999.0,83,-99.99,,,0.00,Acu-Link.com,2013-09-10 03:40:00,
2013-09-09 23:56:00,82.2,76.5,29.95,ESE,112,1.6,-999.0,83,-99.99,,,0.00,Acu-Link.com,2013-09-10 03:56:00,